Location: Forcelles
(48.4564°N, 6.1011°E)
Time: 03:09:30
(UTC+00:00)

Daily predictions for brighter satellites

Satellite Brightness Start Highest point End
(mag) Time Altitude Azimuth Time Altitude Azimuth Time Altitude Azimuth
ATLAS 5 CENTAUR R/B 4.1 02:41:10 71° N 02:41:54 74° NE 03:09:09 10° SE
USA 234 4.3 02:40:36 10° ENE 02:44:57 38° NNE 02:44:57 38° NNE
Cosmos 1697 Rocket 4.2 03:03:20 30° ESE 03:03:20 30° ESE 03:06:19 10° SE
COSMOS 2406 4.3 03:12:36 39° NE 03:12:36 39° NE 03:16:10 10° NNE
Cosmos 1934 Rocket 4.4 03:22:28 34° SSE 03:25:11 60° E 03:31:26 10° NNE
Cosmos 2082 Rocket 3.6 03:22:45 23° SSE 03:25:26 35° ESE 03:30:34 10° NE
CZ-4C R/B 3.3 03:40:02 35° N 03:40:02 35° N 03:44:35 10° NE
Cosmos 1833 Rocket 2.8 03:46:04 66° SSE 03:46:35 71° ESE 03:52:12 10° NNE
Lacrosse 5 rocket 3.7 03:51:05 15° NNE 03:51:05 15° NNE 03:51:59 10° NE
Cosmos 2123 Rocket 3.8 03:46:17 10° N 03:52:29 80° W 03:58:41 10° S
SL-16 R/B 3.9 03:50:44 13° N 03:54:52 29° NE 03:59:46 10° ESE
IDEFIX/ARIANE 42P 3.7 03:51:21 10° N 03:54:03 31° N 03:54:03 31° N
Lacrosse 5 2.5 03:56:32 45° SSE 03:57:20 50° SE 04:02:14 10° ENE
ATLAS 2AS CENTAUR R/B 3.8 03:53:43 22° NNW 03:58:18 43° NNE 04:05:14 10° ESE
CZ-2C R/B 2.7 03:53:23 10° NNE 03:58:19 62° E 04:01:56 17° S
ASTEX 1 3.9 03:55:40 10° SSE 04:00:32 61° E 04:05:28 10° N
CZ-4B R/B 3.8 03:58:55 10° NNE 04:02:11 40° E 04:02:11 40° E
BREEZE-M DEB (TANK) 3.8 04:05:06 38° ESE 04:05:06 38° ESE 04:06:52 10° E
Cosmos 1980 Rocket 2.2 04:02:33 45° NNW 04:04:23 81° ENE 04:10:05 10° SSE
Cosmos 2221 4.3 04:09:03 22° S 04:09:03 22° S 04:10:35 10° S
Cosmos 2322 Rocket 3.9 04:01:37 11° N 04:06:13 30° NE 04:11:09 10° ESE
Cosmos 1605 Rocket 4.0 04:02:16 10° S 04:08:29 81° E 04:14:39 10° N
Cosmos 1356 Rocket 4.1 04:08:04 28° N 04:10:07 57° ENE 04:14:21 10° SSE
SL-4 R/B 2.6 04:17:16 57° NNW 04:17:39 59° N 04:22:26 10° E
Meteor 2-2 Rocket 4.1 04:13:48 10° NNW 04:19:29 85° W 04:25:06 10° S
COSMOS 2441 4.5 04:14:47 10° N 04:18:58 55° NW 04:18:58 55° NW
Cosmos 2369 4.3 04:22:39 39° SW 04:22:39 39° SW 04:26:57 10° S
Gbstr 26 Del rocket 4.4 04:21:06 23° S 04:22:22 29° SE 04:25:38 10° E
COSMO-SKYMED 1 3.2 04:19:58 10° SSE 04:24:12 55° ENE 04:28:28 10° N
Meteor PRIRODA 4.2 04:22:52 10° NNE 04:26:32 56° E 04:30:07 10° S
Meteor 1-31 Rocket 2.6 04:23:49 10° NNE 04:27:40 87° WNW 04:28:09 68° SSW
USA 234 3.9 04:22:59 10° ENE 04:29:06 44° N 04:32:17 27° NW
Meteor 1-27 4.3 04:24:45 17° NNW 04:29:13 55° W 04:34:53 10° S
COSMOS 2455 3.4 04:27:07 17° NNW 04:31:43 55° NE 04:37:36 10° SE
SJ 16-02 2.4 04:27:33 10° S 04:31:45 46° ESE 04:35:57 10° NNE
PAYLOAD A 4.1 04:26:43 10° N 04:31:55 59° WNW 04:35:55 18° SW
Cosmos 2360 4.3 04:31:13 41° WNW 04:32:47 54° WSW 04:38:20 10° S
STARLINK-52 3.1 04:32:53 81° ESE 04:32:53 81° ESE 04:36:20 10° ENE
Cosmos 1484 Rocket 3.5 04:30:55 10° NNE 04:34:51 56° E 04:38:48 10° S
Cosmos 1869 3.1 04:33:50 44° NNW 04:35:00 82° W 04:38:55 10° S
Cosmos 2112 Rocket 3.9 04:34:37 29° NW 04:37:21 67° WSW 04:42:39 10° S
MSX 4.0 04:31:55 10° N 04:37:23 46° WNW 04:39:48 30° WSW
Shenzhou-11 Module 3.7 04:39:55 22° SSE 04:39:55 22° SSE 04:41:46 10° ESE
Okean O Rocket 3.4 04:37:01 10° NNE 04:40:57 33° E 04:44:52 10° SSE
COBE Rocket 3.9 04:36:41 10° S 04:41:50 69° W 04:46:56 10° NNW
Cosmos 2278 4.1 04:41:04 37° W 04:41:58 40° WSW 04:47:14 10° S
Cosmos 2151 4.2 04:38:20 10° SSE 04:42:25 44° E 04:46:31 10° NNE
Cosmos 1697 Rocket 3.5 04:45:09 30° WSW 04:45:09 30° WSW 04:49:24 10° SSW
ADEOS 4.4 04:40:19 10° N 04:44:06 29° NW 04:44:06 29° NW
Cosmos 1680 Rocket 3.7 04:43:02 32° NW 04:45:08 50° WSW 04:50:15 10° S
STARLINK-29 3.0 04:46:54 66° W 04:47:17 76° NNW 04:50:46 10° ENE
H-2A R/B 3.2 04:43:35 10° N 04:47:33 37° WNW 04:47:33 37° WNW
Cosmos 1892 3.5 04:44:07 10° S 04:47:48 52° E 04:51:30 10° NNE
SKYMED 3 4.5 04:43:54 10° SSE 04:48:15 86° WSW 04:52:37 10° NNW
ALOS 3.2 04:45:52 10° NNE 04:50:26 50° E 04:54:58 10° S
COSMOS 2406 4.3 04:54:42 25° NW 04:55:17 25° NW 05:00:03 10° N
STARLINK-60 3.2 04:55:29 50° NW 04:55:57 56° NNW 04:59:17 10° ENE
Cosmos 1459 Rocket 4.2 04:50:05 10° S 04:56:13 73° E 05:02:29 10° NNE
STARLINK-46 3.8 05:00:14 31° NNW 05:00:31 32° N 05:03:15 10° ENE
SL-27 R/B 2.1 04:57:16 10° SSW 05:00:34 80° WNW 05:03:55 10° NNE
CZ-4B DEB 4.3 04:58:09 10° NNE 05:03:39 79° ESE 05:09:08 10° SSW
Cosmos 158 Rocket 3.9 04:59:50 15° NNW 05:03:52 59° WSW 05:08:40 10° S
FALCON 9 DEB 3.2 05:04:14 39° WNW 05:05:14 58° NNW 05:08:38 10° ENE
PSLV R/B 3.7 05:02:04 10° N 05:05:52 62° WNW 05:09:42 10° SSW
USA 116 3.1 05:04:47 10° SSE 05:07:57 80° WSW 05:11:24 10° NNW
Cosmos 990 Rocket 3.9 05:03:29 10° SSW 05:08:39 78° WNW 05:13:53 10° NNE
Cosmos 2082 Rocket 2.5 05:04:43 14° WSW 05:09:25 45° NW 05:14:55 10° NNE
NOSS 3-4 (A) 4.1 05:03:04 12° NW 05:09:28 66° NE 05:17:01 10° SE
NOSS 3-4 (C) 4.1 05:03:10 12° NW 05:09:35 65° NE 05:17:06 10° SE
In-Cosmos 22 Rocket 4.0 05:04:26 10° SSW 05:09:48 82° WNW 05:15:19 10° N
Cosmos 2084 Rocket 4.2 05:08:57 27° W 05:10:39 37° NW 05:14:49 10° NNE
SKYMED 2 3.7 05:08:09 10° S 05:12:22 49° W 05:16:36 10° NNW
deb Kosmos-1763 4.1 05:09:17 10° SW 05:12:56 57° WNW 05:16:37 10° NNE
Cosmos 2100 Rocket 3.9 05:09:01 10° SSW 05:15:13 78° W 05:21:26 10° N
Cosmos 1825 3.6 05:12:05 10° SSE 05:15:37 40° E 05:19:11 10° NNE
Helios 1A Rocket 3.1 05:11:31 10° NNE 05:15:40 75° ESE 05:19:44 10° S
Cosmos 1515 Rocket 4.3 05:13:22 10° N 05:17:38 53° ENE 05:21:52 10° SSE
NOSS 3-3 (A) 4.0 05:13:37 10° SW 05:19:36 87° NW 05:26:23 10° NE
NOSS 3-3 (C) 4.0 05:13:44 10° SW 05:19:42 87° NW 05:26:29 10° NE
Cosmos 1328 Rocket 3.5 05:15:44 10° N 05:20:07 89° E 05:24:26 10° S
Cosmos 839 Rocket 4.3 05:17:19 10° WSW 05:24:08 52° NW 05:30:12 10° NNE
Cosmos 1802 Rocket 4.0 05:20:53 10° S 05:27:20 83° W 05:33:48 10° N
Cosmos 1151 Rocket 3.0 05:23:21 10° N 05:27:46 83° W 05:32:08 10° S
CZ-4C R/B 3.9 05:25:13 13° NW 05:28:56 22° N 05:34:08 10° NE
Lacrosse 5 rocket 2.7 05:26:44 14° NW 05:28:59 23° N 05:31:55 10° ENE
Cosmos 1833 Rocket 3.7 05:27:50 16° W 05:31:04 25° NW 05:35:42 10° N
Cosmos 2058 3.8 05:29:14 10° SW 05:32:54 29° WNW 05:36:35 10° N
Cosmos 1898 Rocket 3.7 05:28:59 10° SW 05:34:02 48° WNW 05:39:10 10° NNE
IDEFIX/ARIANE 42P 4.4 05:33:28 10° NNW 05:34:52 11° NW 05:34:52 11° NW
Cosmos 2061 Rocket 4.0 05:29:27 10° SSW 05:35:44 81° W 05:42:00 10° N
CZ-2C R/B 3.6 05:32:28 10° NNW 05:36:05 21° WNW 05:39:36 10° WSW
CZ-4B R/B 4.1 05:34:51 10° NNW 05:37:13 17° WNW 05:38:16 15° W
SL-16 R/B 2.3 05:33:48 10° NNW 05:39:24 61° WSW 05:44:58 10° S
Lacrosse 5 2.2 05:35:46 12° W 05:40:22 50° NNW 05:45:20 10° NE
Radarsat Rocket 4.3 05:34:53 10° NNE 05:40:47 70° ESE 05:46:37 10° S
Cosmos 2237 Rocket 4.5 05:37:43 10° N 05:41:15 16° NE 05:44:48 10° ENE
Cosmos 2360 Rocket 2.5 05:36:48 10° NNW 05:42:30 69° ENE 05:48:09 10° SE
Cosmos 1408 Rocket 3.4 05:39:16 10° SSW 05:43:33 72° W 05:47:54 10° N
Cosmos 1437 3.5 05:42:26 10° S 05:45:24 53° E 05:48:24 10° NNE
Cosmos 2150 Rocket 4.4 05:40:51 10° SSW 05:46:17 75° ESE 05:51:43 10° NNE
Okean 3 Rocket 4.2 05:42:37 10° SW 05:46:48 36° WNW 05:51:00 10° N
Cosmos 1980 Rocket 3.6 05:44:23 11° WNW 05:47:40 18° W 05:51:21 10° SW
Cosmos 1937 Rocket 3.7 05:43:03 10° SW 05:48:02 49° WNW 05:53:02 10° NNE
Cosmos 1500 Rocket 4.2 05:44:16 10° S 05:48:40 62° E 05:53:05 10° NNE
STARLINK-43 3.3 05:45:04 10° WSW 05:48:48 78° NNW 05:52:33 10° ENE
ATLAS 2AS CENTAUR R/B 2.9 05:42:10 10° NW 05:49:49 69° SW 05:56:49 10° SSE
Cosmos 2322 Rocket 2.3 05:45:05 10° NW 05:50:38 58° WSW 05:56:11 10° S
NOAA 6 4.0 05:47:02 10° N 05:52:07 62° WNW 05:57:08 10° SSW
STARLINK-67 2.8 05:51:52 12° WNW 05:54:13 57° NNE 05:56:50 10° ESE
Cosmos 2173 Rocket 4.3 05:48:21 10° SW 05:54:21 45° WNW 06:00:17 10° N
Cosmos 1782 4.3 05:50:58 10° N 05:54:45 39° ENE 05:58:30 10° SE
Cosmos 1766 Rocket 4.0 05:51:06 10° SW 05:55:07 37° WNW 05:59:10 10° N
SL-4 R/B 2.4 05:52:52 10° WNW 05:57:42 88° SSW 06:02:30 10° ESE
IRS-1C Rocket 4.5 05:53:41 10° NNE 05:58:59 73° ESE 06:04:14 10° S
Cosmos 1238 Rocket 4.3 05:53:56 10° S 06:00:35 79° E 06:06:47 10° NNE
COSMO-SKYMED 1 4.1 05:57:50 10° SW 06:00:42 17° W 06:03:37 10° NW
CZ-2C R/B 4.0 05:57:52 10° SSE 06:02:21 75° ENE 06:06:57 10° N
SAR-Lupe-2 4.0 05:59:49 10° SSE 06:03:21 65° ENE 06:06:55 10° N
AQUARIUS 4.4 06:04:14 10° NNE 06:08:46 79° ESE 06:13:16 10° S
Cosmos 1484 Rocket 4.4 06:06:21 10° NNW 06:08:53 16° WNW 06:11:24 10° WSW
Gbstr 26 Del rocket 2.6 06:05:08 10° WSW 06:08:53 74° NNW 06:12:42 10° ENE
Cosmos 1400 Rocket 2.9 06:05:07 10° NNW 06:09:16 85° W 06:13:18 10° S
Cosmos 2233 Rocket 4.1 06:03:02 10° S 06:09:18 90° NNE 06:15:40 10° N
CZ-4 R/B 4.0 06:06:45 10° NE 06:10:01 24° E 06:13:13 10° SSE
STARLINK-52 3.9 06:06:55 10° W 06:10:16 40° N 06:13:37 10° ENE
SJ 16-02 2.5 06:07:04 10° WSW 06:10:34 23° NW 06:14:05 10° N
USA 234 3.5 06:05:08 10° ESE 06:11:39 73° NNE 06:18:11 10° NW
Cosmos 2322 4.1 06:06:33 10° NNW 06:12:16 71° ENE 06:17:54 10° SE
